Weather Roundup
Issued by NWS Springfield, MO

Home | Current Version | Previous Version | Text Only | Print | Product List | Glossary On
Versions: 1 2 3 4 5 6 7 8 9 10 11 12 13 14 15 16 17 18 19 20 21 22 23 24 25 26 27 28 29 30 31 32 33 34 35 36 37 38 39 40 41 42 43 44 45 46 47 48 49 50
000
NZUS99 KSGF 180207
HRRSGF

HOURLY WEATHER
NATIONAL WEATHER SERVICE SPRINGFIELD MO
900 PM CDT WED SEP 17 2014

......SGF CWA......

CITY           SKY/WX    TMP DP  RH WIND       PRES   REMARKS
SPRINGFIELD    CLEAR     66  63  90 E3        29.91R
JOPLIN         CLEAR     68  62  81 S7        29.90R
WEST PLAINS    MOCLDY    63  61  93 E7        29.96R
ROLLA          MOCLDY    62  60  93 SE8       29.94R FOG
OSAGE BEACH    CLOUDY    68  63  83 E5        29.93R
BRANSON        MOCLDY    63  63 100 CALM      29.93R

......SURROUNDING SGF CWA......

CITY           SKY/WX    TMP DP  RH WIND       PRES   REMARKS
CHANUTE        CLEAR     75  71  87 E8        29.87R
PARSONS        CLEAR     74  64  71 VRB3      29.88R
COFFEYVILLE    PTCLDY    74  62  66 S9        29.85R
EMPORIA        CLEAR     71  67  87 NE8       29.89R
GROVE OK       MOCLDY    70  70 100 SE5       29.89R
ROGERS AR      MOCLDY    65  63  93 CALM      29.93R
SILOAM SPRINGS CLOUDY    66  61  82 S5        29.92S
HARRISON AR    MOCLDY    62  62 100 S3        29.93R FOG
NEAR YELLVILLE CLOUDY    64  61  88 CALM      29.93R VSB 1/4

......KANSAS AND MISSOURI......

CITY           SKY/WX    TMP DP  RH WIND       PRES   REMARKS
KANSAS CTY INT CLEAR     68  64  87 E8        29.93R
DOWNTOWN KC    CLEAR     68  65  90 E6        29.92R
COLUMBIA         N/A    N/A N/A N/A MISG        N/A
SEDALIA        CLOUDY    66  63  90 E8        29.95R
ST JOSEPH      PTCLDY    66  64  93 SE3       29.93R
ST LOUIS       CLOUDY    63  55  77 E7        29.98S
SPIRIT OF STL  CLOUDY    62  60  93 E3        29.96R FOG
KIRKSVILLE     CLOUDY    64  60  87 E5        29.99R
WICHITA        PTCLDY    82  61  48 NE8       29.83R
TOPEKA         CLEAR     68  66  93 E6        29.91R
OLATHE         PTCLDY    66  64  93 E5        29.91R

......TENNESSEE......

CITY           SKY/WX    TMP DP  RH WIND       PRES   REMARKS
MEMPHIS        CLOUDY    72  64  76 E8        29.93R
NASHVILLE      CLOUDY    65  58  78 CALM      29.98R

......ARKANSAS.......

CITY           SKY/WX    TMP DP  RH WIND       PRES   REMARKS
FAYETTEVILLE   CLOUDY    67  32  27 SW5       29.92R
FT SMITH       TSTM      70  66  87 E24G36    29.90F FOG
LITTLE ROCK    CLOUDY    76  68  76 SE5       29.89R

......OKLAHOMA.......

CITY           SKY/WX    TMP DP  RH WIND       PRES   REMARKS
TULSA          CLOUDY    84  72  67 S12       29.85R
PONCA CITY     CLOUDY    84  66  54 S6        29.83R
MCALESTER      CLOUDY    80  73  79 SE5       29.89R
OKLAHOMA CITY  CLOUDY    80  67  64 S8        29.87R

......IOWA............

CITY           SKY/WX    TMP DP  RH WIND       PRES   REMARKS
DES MOINES     CLEAR     67  57  70 E5        29.97R
QUAD CITIES    CLEAR     55  51  86 CALM      30.00R

......ILLINOIS........

CITY           SKY/WX    TMP DP  RH WIND       PRES   REMARKS
QUINCY         CLOUDY    62  56  80 S6        29.98R
CHICAGO        CLEAR     62  46  55 CALM      30.01R



USA.gov is the U.S. government's official web portal to all federal, state and local government web resources and services.